Tracking 23726 objects as of 22-Sep-2021
HD Live streaming from Space Station
objects crossing your sky now

JILIN-01 GAOFEN 3G

Track JILIN-01 GAOFEN 3G now!
10-day predictions


NORAD ID: 46459
Int'l Code: 2020-065F
Perigee: 531.8 km
Apogee: 555.2 km
Inclination: 97.5 °
Period: 95.4 minutes
Semi major axis: 6914 km
RCS: Unknown
Launch date: September 15, 2020
Source: People's Republic of China (PRC)
Launch site: Yellow Sea Launch Area, China (YSLA)
aabbcc
Your satellite tracking list
Your tracking list is empty




NASA's NSSDC Master Catalog

Two Line Element Set (TLE):
1 46459U 20065F   21265.56436025  .00001272  00000-0  82056-4 0  9995
2 46459  97.4951 320.0109 0016938  95.2660  10.8066 15.09944678 56202
Source of the keplerian elements: AFSPC